Regional Weather Roundup
Issued by NWS

Home | Current Version | Previous Version | Graphics & Text | Print | Product List | Glossary On
Versions: 1 2 3 4 5 6 7 8 9 10 11 12 13 14 15 16 17 18 19 20 21 22 23 24 25 26 27 28 29 30 31 32 33 34 35 36 37 38 39 40 41 42 43 44 45 46 47 48 49 50
000
ASUS44 KMEG 222010
RWRTN
TENNESSEE HOURLY STATE WEATHER ROUNDUP
NATIONAL WEATHER SERVICE MEMPHIS TN
300 PM CDT FRI JUL 22 2016

TNZ002-004-019-021-049-052-054-088>092-222100-
WEST TENNESSEE

CITY           SKY/WX    TMP DP  RH WIND       PRES   REMARKS
MEMPHIS INTL   MOSUNNY   98  75  47 CALM      30.01F HX 110
NWS MEMPHIS      N/A     96 N/A N/A MISG        N/A
JACKSON        TSTM      81  73  76 NE8G23    30.05R
DYERSBURG      MOSUNNY   93  75  55 MISG      30.01S HX 104
UNION CITY     SUNNY     79  75  89 SE8       30.02F
PARIS          SUNNY     75  72  88 SW10      30.07R
LEXINGTON      PTSUNNY   79  73  83 NW25G44   30.09R
$$

TNZ008-025-027-028-033-062-065-066-222100-
NORTH MIDDLE TENNESSEE

CITY           SKY/WX    TMP DP  RH WIND       PRES   REMARKS
NASHVILLE      CLOUDY    92  71  50 E7        30.04F HX  98
CLARKSVILLE    CLOUDY    85  71  63 NW7       30.04F HX  90
SMYRNA         CLOUDY    95  72  47 CALM      30.04F HX 103
COOKEVILLE     SUNNY     91  77  62 W5        30.08F HX 105
CROSSVILLE     MOSUNNY   86  70  58 NW7       30.13F HX  90
$$

TNZ061-075-076-078-094-096-097-222100-
SOUTH MIDDLE TENNESSEE

CITY           SKY/WX    TMP DP  RH WIND       PRES   REMARKS
FAYETTEVILLE   SUNNY     91  72  52 NW6       30.06F HX  98
TULLAHOMA      SUNNY     90  68  48 VRB7      30.09F HX  93
WINCHESTER     MOSUNNY   91  72  52 N6        30.07F HX  98
MCMINNVILLE    SUNNY     90  75  62 NE8       30.09F HX 100
COLUMBIA       PTSUNNY   93  73  52 SE5       30.03F HX 102
SHELBYVILLE    SUNNY     91  75  59 E5        30.07S HX 102
$$

TNZ017-018-042-046-047-222100-
NORTHEAST TENNESSEE

CITY           SKY/WX    TMP DP  RH WIND       PRES   REMARKS
TRI CITIES     PTSUNNY   93  64  38 N10       30.08F HX  94
ELIZABETHTON   MOSUNNY   88  68  51 CALM      30.08F HX  91
$$

TNZ012-013-036-069-073-074-222100-
CENTRAL EAST TENNESSEE

CITY           SKY/WX    TMP DP  RH WIND       PRES   REMARKS
KNOXVILLE      PTSUNNY   94  67  41 SW8       30.04F HX  97
OAK RIDGE      CLOUDY    95  66  38 VRB5      30.06F HX  98
GATLINBURG       N/A     95  64  36 VRB7      30.04F HX  97
MORRISTOWN     SUNNY     84  73  70 SE6G13    30.07F HX  91
$$

TNZ083-085-099-222100-
SOUTHEAST TENNESSEE

CITY           SKY/WX    TMP DP  RH WIND       PRES   REMARKS
CHATTANOOGA    PTSUNNY   95  67  39 SW6       30.03F HX  99
$$

SKY/WX REPORTED AS FAIR MEANS FEW OR NO CLOUDS BELOW
12 THOUSAND FEET.





USA.gov is the U.S. government's official web portal to all federal, state and local government web resources and services.